Weather History for Akron Canton, OH

Change the Weather History Date:

Tuesday, January 31, 2012

  Actual Average Record
Temperature  
Mean Temperature 52 °F 27 °F  
Max Temperature 59 °F 34 °F 62 °F (2002)
Min Temperature 44 °F 19 °F -5 °F (1948)
Degree Days  
Heating Degree Days 13 38  
Month to date heating degree days 1029 1206  
Since 1 July heating degree days 2940 3536  
Cooling Degree Days 0 0  
Month to date cooling degree days 0 0  
Year to date cooling degree days 0 0  
Growing Degree Days 2 (Base 50)    
Moisture  
Dew Point 32 °F    
Average Humidity 51    
Maximum Humidity 66    
Minimum Humidity 36    
Precipitation  
Precipitation 0.00 in 0.08 in 1.48 in (1982)
Month to date precipitation 3.38 2.61  
Year to date precipitation 3.38 2.61  
Snow  
Snow 0.00 in 0.40 in - ()
Month to date snowfall 14.2 12.4  
Since 1 July snowfall 16.7 26.0  
Snow Depth 0.00 in    
Sea Level Pressure  
Sea Level Pressure 30.03 in    
Wind  
Wind Speed 17 mph (SW)    
Max Wind Speed 33 mph    
Max Gust Speed 45 mph    
Visibility 10 miles    
Events      
T = Trace of Precipitation, MM = Missing Value Source: NWS Daily Summary

Daily Weather History Graph

Daily Weather History Graph

Search for Another Location

Airport:

Trip Planner

Search our weather history database for the weather conditions in past years. The results will help you decide how hot, cold, wet, or windy it might be!

Date:

Astronomy

Jan. 31, 2012 Rise Set
Actual Time 7:37 AM EST 5:41 PM EST
Civil Twilight 7:08 AM EST 6:10 PM EST
Nautical Twilight 6:35 AM EST 6:43 PM EST
Astronomical Twilight 6:03 AM EST 7:15 PM EST
Moon 11:30 AM EST (1/31) 1:24 AM EST (1/31)
Length of Visible Light 11h 01m
Length of Day
10h 03m
First Quarter, 55% of the Moon is Illuminated
Jan 31
First Quarter
Feb 7
Full
Feb 14
Last Quarter
Feb 21
New
Feb 29
First Quarter

Hourly Weather History & Observations

Time (EST) Temp. Windchill Dew Point Humidity Pressure Visibility Wind Dir Wind Speed Gust Speed Precip Events Conditions
12:51 AM 46.0 °F 40.2 °F 26.1 °F 46% 30.06 in 10.0 mi WSW 12.7 mph - N/A   Clear
1:51 AM 44.1 °F 38.1 °F 26.1 °F 49% 30.06 in 10.0 mi SW 11.5 mph - N/A   Clear
2:51 AM 48.0 °F - 25.0 °F 41% 30.06 in 10.0 mi WSW 18.4 mph 28.8 mph N/A   Clear
3:51 AM 46.9 °F - 25.0 °F 42% 30.06 in 10.0 mi WSW 17.3 mph 26.5 mph N/A   Clear
4:51 AM 45.0 °F 38.5 °F 26.1 °F 48% 30.08 in 10.0 mi WSW 13.8 mph - N/A   Clear
5:51 AM 45.0 °F 37.9 °F 26.1 °F 48% 30.08 in 10.0 mi SW 16.1 mph - N/A   Clear
6:51 AM 45.0 °F 38.5 °F 27.0 °F 49% 30.08 in 10.0 mi SW 13.8 mph - N/A   Overcast
7:51 AM 45.0 °F 38.5 °F 27.0 °F 49% 30.09 in 10.0 mi SW 13.8 mph 20.7 mph N/A   Mostly Cloudy
8:51 AM 46.0 °F 39.9 °F 27.0 °F 47% 30.10 in 10.0 mi SW 13.8 mph - N/A   Scattered Clouds
9:51 AM 48.9 °F - 27.0 °F 43% 30.10 in 10.0 mi SW 17.3 mph - N/A   Mostly Cloudy
10:51 AM 52.0 °F - 28.9 °F 41% 30.08 in 10.0 mi SW 16.1 mph 23.0 mph N/A   Scattered Clouds
11:51 AM 55.0 °F - 30.0 °F 38% 30.05 in 10.0 mi SW 17.3 mph 28.8 mph N/A   Scattered Clouds
12:51 PM 57.0 °F - 30.9 °F 37% 30.01 in 10.0 mi SW 17.3 mph 25.3 mph N/A   Scattered Clouds
1:51 PM 57.9 °F - 34.0 °F 41% 30.00 in 10.0 mi SW 18.4 mph 29.9 mph N/A   Scattered Clouds
2:51 PM 59.0 °F - 33.1 °F 38% 29.98 in 10.0 mi SW 20.7 mph 26.5 mph N/A   Scattered Clouds
3:51 PM 57.0 °F - 34.0 °F 42% 29.99 in 10.0 mi SW 21.9 mph 29.9 mph N/A   Overcast
4:51 PM 55.0 °F - 34.0 °F 45% 29.98 in 10.0 mi SW 15.0 mph 23.0 mph N/A   Overcast
5:51 PM 55.0 °F - 35.1 °F 47% 29.98 in 10.0 mi SW 18.4 mph - N/A   Overcast
6:51 PM 55.0 °F - 35.1 °F 47% 29.98 in 10.0 mi SW 17.3 mph 27.6 mph N/A   Overcast
7:51 PM 55.0 °F - 36.0 °F 49% 29.98 in 10.0 mi SW 18.4 mph 25.3 mph N/A   Overcast
8:22 PM 53.6 °F - 42.8 °F 67% 29.97 in 10.0 mi SW 27.6 mph 42.6 mph N/A   Overcast
8:51 PM 53.1 °F - 42.1 °F 66% 29.97 in 10.0 mi WSW 18.4 mph 26.5 mph N/A   Overcast
9:51 PM 54.0 °F - 37.9 °F 55% 29.98 in 10.0 mi WSW 24.2 mph 29.9 mph N/A   Overcast
10:51 PM 53.1 °F - 39.0 °F 59% 29.98 in 10.0 mi WSW 24.2 mph 38.0 mph N/A   Overcast
11:51 PM 52.0 °F - 39.0 °F 61% 29.96 in 10.0 mi SW 18.4 mph 25.3 mph N/A   Overcast